Location: PSU-Greenbush Astrophysical Observatory
(37.5140°N, 94.9880°W)
Time: 01:26:29
(UTC-06:00)

deb Explorer IX - Pass Details

Date: 01 February 2020
Orbit: 549 x 1099 km, 38.8° (Epoch: 20 February)

Event Time Altitude Azimuth Distance (km) Brightness Sun altitude
Rises 22:50:37 0° 283° (WNW) 3,674 - -59.4°
Reaches altitude 10° 22:53:10 10° 282° (WNW) 2,788 - -59.9°
Maximum altitude 23:00:04 80° 197° (SSW) 1,094 - -60.9°
Drops below altitude 10° 23:07:24 10° 112° (ESE) 2,944 - -62.1°
Sets 23:10:09 0° 111° (ESE) 3,890 - -62.5°
